FW5667 Weather Reports


time (UTC)temp
C
wind
direction
speed
KPH
gust
KPH
rain 1hr
cm
rain 24hr
cm
rain mn
cm
humidity
%
barometer
mb
20210920062024 10 0 0.0 0.0 0.00 2.49 2.49 94 1024.3
20210920061550 10 0 0.0 0.0 0.00 2.49 2.49 94 1024.2
20210920061022 10 0 0.0 0.0 0.00 2.49 2.49 95 1024.1
20210920060534 10 0 0.0 0.0 0.00 2.49 2.49 94 1024.0
20210920060058 10 0 0.0 0.0 0.00 2.49 2.49 94 1024.2
20210920055522 10 0 0.0 0.0 0.00 2.49 2.49 94 1024.1
20210920055037 10 0 0.0 0.0 0.00 2.49 2.49 94 1023.9
20210920054626 10 0 0.0 0.0 0.00 2.49 2.49 94 1024.0
20210920054023 10 0 0.0 0.0 0.00 2.49 2.49 94 1024.0
20210920053529 10 0 0.0 1.6 0.00 2.49 2.49 94 1024.0
20210920053056 10 0 0.0 1.6 0.00 2.49 2.49 94 1023.8
20210920052522 10 0 0.0 0.0 0.00 2.49 2.49 94 1023.9
20210920052021 10 0 0.0 0.0 0.00 2.49 2.49 94 1023.9
20210920051541 10 0 0.0 0.0 0.00 2.49 2.49 94 1023.8
20210920051030 11 0 0.0 0.0 0.00 2.49 2.49 93 1023.8
20210920050524 11 0 0.0 0.0 0.00 2.49 2.49 93 1023.7
20210920050036 11 0 0.0 0.0 0.00 2.49 2.49 93 1023.7
20210920045524 11 0 0.0 0.0 0.00 2.49 2.49 93 1023.8
20210920045036 11 0 0.0 0.0 0.00 2.49 2.49 93 1023.7
20210920044602 11 0 0.0 1.6 0.00 2.49 2.49 93 1023.7
20210920044024 11 0 0.0 1.6 0.00 2.49 2.49 93 1023.6
20210920043528 11 0 0.0 1.6 0.03 2.49 2.49 93 1023.5
20210920043100 11 0 0.0 0.0 0.03 2.49 2.49 93 1023.4
20210920042536 11 0 0.0 0.0 0.03 2.49 2.49 92 1023.4
20210920042046 11 0 0.0 0.0 0.03 2.49 2.49 93 1023.3
20210920041557 11 0 0.0 0.0 0.03 2.49 2.49 92 1023.3
20210920041035 11 0 0.0 0.0 0.03 2.49 2.49 92 1023.1
20210920040522 11 0 0.0 0.0 0.03 2.49 2.49 91 1023.1
20210920040042 12 0 0.0 0.0 0.03 2.49 2.49 91 1022.9
20210920035521 12 0 0.0 1.6 0.03 2.51 2.49 90 1022.8
20210920035023 12 0 0.0 3.2 0.03 2.51 2.49 90 1022.8
20210920034600 12 0 0.0 3.2 0.03 2.51 2.49 91 1022.7
20210920034022 12 0 0.0 0.0 0.03 2.51 2.49 90 1022.6
20210920033523 12 0 0.0 0.0 0.00 2.49 2.46 90 1022.6
20210920033034 12 0 0.0 0.0 0.00 2.49 2.46 90 1022.4
20210920032523 12 0 0.0 0.0 0.00 2.49 2.46 89 1022.4
20210920032037 12 0 0.0 4.8 0.00 2.49 2.46 89 1022.2
20210920031538 12 0 0.0 4.8 0.00 2.49 2.46 88 1022.1
20210920031032 12 229 0.0 1.6 0.00 2.49 2.46 88 1022.0
20210920030527 12 0 0.0 1.6 0.00 2.49 2.46 87 1022.0
20210920030058 12 0 0.0 1.6 0.00 2.49 2.46 86 1021.9
20210920025523 13 0 0.0 3.2 0.00 2.49 2.46 85 1021.8
20210920025021 13 0 0.0 4.8 0.00 2.49 2.46 83 1021.7
20210920024544 13 0 0.0 4.8 0.00 2.49 2.46 83 1021.8
20210920024024 13 228 0.0 4.8 0.00 2.49 2.46 82 1021.8
20210920023523 14 0 0.0 8.0 0.00 2.49 2.46 80 1021.6
20210920023032 14 230 1.6 11.3 0.00 2.49 2.46 79 1021.7
20210920022522 15 217 3.2 11.3 0.00 2.49 2.46 79 1021.6
20210920022023 15 227 1.6 9.7 0.00 2.49 2.46 79 1021.6
20210920021528 15 0 3.2 9.7 0.00 2.49 2.46 79 1021.5
20210920021024 15 238 1.6 9.7 0.00 2.49 2.46 79 1021.4
20210920020535 15 151 1.6 8.0 0.00 2.49 2.46 78 1021.5
20210920020038 15 219 3.2 9.7 0.00 2.49 2.46 78 1021.4
20210920015526 15 213 6.4 9.7 0.00 2.49 2.46 78 1021.4
20210920015035 15 0 0.0 6.4 0.00 2.49 2.46 79 1021.3
20210920014527 15 202 1.6 6.4 0.00 2.49 2.46 80 1021.3
20210920014023 15 205 0.0 9.7 0.00 2.49 2.46 80 1021.3
20210920013532 15 0 1.6 11.3 0.00 2.49 2.46 78 1021.1
20210920013102 15 244 3.2 11.3 0.00 2.49 2.46 77 1021.1
20210920012521 15 198 1.6 11.3 0.00 2.49 2.46 78 1021.1
20210920012024 15 248 1.6 11.3 0.00 2.49 2.46 77 1021.1
20210920011541 15 178 4.8 11.3 0.00 2.49 2.46 77 1021.0
20210920011021 15 199 3.2 11.3 0.00 2.49 2.46 76 1021.0
20210920010524 15 240 3.2 19.3 0.00 2.49 2.46 76 1020.9
20210920010046 15 185 6.4 19.3 0.00 2.49 2.46 76 1020.8
20210920005545 15 196 9.7 24.1 0.00 2.49 2.46 76 1020.8
20210920005027 15 153 8.0 24.1 0.00 2.49 2.46 76 1020.8
20210920004609 15 211 8.0 19.3 0.00 2.49 2.46 76 1020.7
20210920004021 15 208 6.4 19.3 0.00 2.49 2.46 76 1020.7
20210920003529 15 195 8.0 22.5 0.00 2.49 2.46 78 1020.5
20210920003058 15 145 9.7 22.5 0.00 2.49 2.46 78 1020.5
20210920002521 15 180 6.4 19.3 0.00 2.49 2.46 80 1020.4
20210920002021 15 168 9.7 17.7 0.00 2.49 2.46 79 1020.3
20210920001622 15 138 6.4 14.5 0.00 2.49 2.46 80 1020.4
20210920001026 15 180 4.8 14.5 0.00 2.49 2.46 81 1020.3
20210920000531 15 188 3.2 19.3 0.00 2.49 2.46 81 1020.3
20210920000115 15 205 6.4 19.3 0.00 2.49 2.46 79 1020.3
20210919235529 16 166 4.8 16.1 0.00 2.49 2.46 77 1020.3
20210919235021 16 188 8.0 16.1 0.00 2.49 2.46 75 1020.3
20210919234532 16 15 4.8 17.7 0.00 2.49 2.46 73 1020.2
20210919234052 16 153 6.4 17.7 0.00 2.49 2.46 73 1020.1
20210919233522 16 198 9.7 17.7 0.00 2.49 2.46 73 1020.0
20210919233056 16 189 8.0 17.7 0.00 2.49 2.46 73 1020.1
20210919232600 16 191 6.4 14.5 0.00 2.49 2.46 72 1020.1
20210919232023 16 185 6.4 14.5 0.00 2.49 2.46 73 1020.0
20210919231604 16 192 4.8 14.5 0.00 2.49 2.46 72 1020.0
20210919231026 17 208 6.4 14.5 0.00 2.49 2.46 71 1019.8
20210919230531 17 205 6.4 14.5 0.00 2.49 2.46 70 1019.9
20210919230043 17 208 4.8 14.5 0.00 2.49 2.46 73 1019.8
20210919225522 17 182 4.8 14.5 0.00 2.49 2.46 73 1019.8
20210919225022 17 209 4.8 14.5 0.00 2.49 2.46 71 1019.6
20210919224540 17 123 4.8 17.7 0.00 2.49 2.46 71 1019.6
20210919224028 18 195 9.7 17.7 0.00 2.49 2.46 70 1019.6
20210919223522 18 194 6.4 17.7 0.00 2.49 2.46 71 1019.6
20210919223046 18 144 8.0 17.7 0.00 2.49 2.46 74 1019.5
20210919222539 17 188 4.8 17.7 0.00 2.49 2.46 76 1019.7
20210919222021 18 158 6.4 16.1 0.00 2.49 2.46 80 1019.5
20210919221541 17 168 3.2 11.3 0.00 2.49 2.46 82 1019.6
20210919221033 17 178 3.2 14.5 0.00 2.49 2.46 84 1019.6
20210919220526 16 206 3.2 14.5 0.03 2.49 2.46 84 1019.5
20210919220210 16 167 6.4 12.9 0.03 2.49 2.46 85 1019.6
20210919215525 16 193 4.8 12.9 0.03 2.49 2.46 85 1019.5
20210919215024 16 187 3.2 9.7 0.03 2.49 2.46 89 1019.5
20210919214549 16 176 3.2 8.0 0.03 2.49 2.46 90 1019.5
20210919214030 16 0 0.0 4.8 0.03 2.49 2.46 89 1019.4
20210919213523 16 120 0.0 8.0 0.03 2.49 2.46 89 1019.4
20210919213046 15 0 1.6 11.3 0.03 2.49 2.46 90 1019.3
20210919212522 15 121 3.2 11.3 0.03 2.49 2.46 90 1019.4
20210919212023 15 145 0.0 4.8 0.03 2.49 2.46 88 1019.4
20210919211603 16 111 0.0 4.8 0.03 2.49 2.46 91 1019.3
20210919211024 15 0 0.0 6.4 0.00 2.46 2.44 91 1019.3
20210919210531 15 108 3.2 14.5 0.00 2.46 2.44 91 1019.3
20210919210048 15 141 4.8 14.5 0.00 2.46 2.44 90 1019.4
20210919205524 15 144 6.4 19.3 0.00 2.46 2.44 90 1019.3
20210919205033 15 138 8.0 24.1 0.00 2.46 2.44 87 1019.3
20210919204611 16 118 6.4 24.1 0.00 2.46 2.44 83 1019.3
20210919204023 16 115 6.4 12.9 0.00 2.46 2.44 81 1018.8
20210919203527 16 123 4.8 14.5 0.00 2.46 2.44 80 1018.8
20210919203112 16 98 4.8 16.1 0.00 2.46 2.44 77 1018.8
20210919202523 17 155 8.0 16.1 0.00 2.46 2.44 76 1018.7
20210919202022 17 137 0.0 11.3 0.00 2.46 2.44 76 1018.8
20210919201558 16 0 3.2 20.9 0.00 2.46 2.44 80 1018.8
20210919201030 17 188 9.7 22.5 0.00 2.46 2.44 78 1018.8
20210919200529 17 142 8.0 22.5 0.00 2.46 2.44 76 1018.7
20210919200035 17 177 8.0 17.7 0.00 2.46 2.44 78 1018.8
20210919195535 17 111 4.8 14.5 0.00 2.46 2.44 80 1018.6
20210919195024 16 53 3.2 14.5 0.00 2.46 2.44 80 1018.6
20210919194555 16 126 6.4 16.1 0.00 2.46 2.44 81 1018.5
20210919194025 16 156 4.8 17.7 0.00 2.46 2.44 82 1018.5
20210919193522 16 113 3.2 17.7 0.00 2.46 2.44 80 1018.6
20210919193031 16 196 4.8 17.7 0.00 2.46 2.44 84 1018.6
20210919192535 16 199 6.4 17.7 0.00 2.46 2.44 83 1018.6
20210919192023 16 165 4.8 17.7 0.00 2.46 2.44 82 1018.6
20210919191555 16 254 6.4 17.7 0.00 2.46 2.44 82 1018.5
20210919191042 16 175 3.2 11.3 0.00 2.46 2.44 82 1018.5
20210919190522 15 137 3.2 9.7 0.00 2.46 2.44 88 1018.5
20210919190102 15 134 0.0 11.3 0.00 2.46 2.44 88 1018.4
20210919185522 15 0 4.8 11.3 0.00 2.54 2.44 88 1018.3
20210919185022 15 138 3.2 9.7 0.00 2.54 2.44 85 1018.2
20210919184526 15 236 1.6 12.9 0.00 2.54 2.44 86 1018.1
20210919184025 15 167 3.2 14.5 0.00 2.54 2.44 87 1018.1
20210919183539 15 196 4.8 14.5 0.00 2.54 2.44 87 1018.1
20210919183034 15 182 3.2 14.5 0.00 2.54 2.44 89 1018.1
20210919182523 14 135 4.8 14.5 0.00 2.54 2.44 90 1017.9
20210919182026 14 157 3.2 16.1 0.00 2.54 2.44 91 1017.8
20210919181611 14 131 4.8 16.1 0.00 2.54 2.44 91 1017.8
20210919181025 14 160 8.0 14.5 0.00 2.54 2.44 91 1017.9
20210919180546 14 144 4.8 9.7 0.00 2.54 2.44 92 1017.8
20210919180037 14 115 3.2 12.9 0.00 2.54 2.44 91 1017.6
20210919175525 13 159 3.2 12.9 0.00 2.72 2.44 90 1017.7
20210919175046 13 163 1.6 9.7 0.00 2.72 2.44 92 1017.6
20210919174529 13 161 3.2 8.0 0.00 2.72 2.44 93 1017.5
20210919174029 13 180 0.0 11.3 0.00 2.72 2.44 91 1017.5
20210919173523 13 166 6.4 11.3 0.00 2.72 2.44 92 1017.4
20210919173033 13 140 4.8 11.3 0.00 2.72 2.44 93 1017.5
20210919172521 13 156 4.8 9.7 0.00 2.72 2.44 92 1017.3
20210919172022 13 110 3.2 11.3 0.00 2.72 2.44 94 1017.3
20210919171611 13 0 1.6 11.3 0.00 2.72 2.44 93 1017.3
20210919171032 13 192 4.8 11.3 0.00 2.72 2.44 95 1017.1
20210919170525 13 144 4.8 11.3 0.00 2.72 2.44 94 1017.0
20210919170058 13 128 4.8 9.7 0.00 2.72 2.44 95 1017.1
20210919165525 13 157 1.6 8.0 0.00 3.10 2.44 95 1016.9
20210919165034 13 0 0.0 6.4 0.00 3.10 2.44 96 1016.7
20210919164547 12 175 1.6 6.4 0.00 3.10 2.44 96 1016.6
20210919164024 12 165 1.6 6.4 0.00 3.10 2.44 96 1016.4
20210919163526 12 0 0.0 6.4 0.00 3.10 2.44 96 1016.4
20210919163045 12 164 1.6 9.7 0.00 3.10 2.44 97 1016.1
20210919162531 12 148 3.2 9.7 0.00 3.10 2.44 96 1016.0
20210919162022 12 154 3.2 9.7 0.00 3.10 2.44 96 1015.9
20210919161539 12 148 1.6 8.0 0.00 3.10 2.44 96 1015.7
20210919161032 12 178 3.2 8.0 0.00 3.10 2.44 97 1015.8
20210919160625 12 0 1.6 6.4 0.00 3.10 2.44 97 1015.7
20210919160054 12 182 3.2 6.4 0.00 3.10 2.44 97 1015.7
20210919155526 12 0 1.6 6.4 0.00 3.81 2.44 97 1015.5
20210919155022 11 165 1.6 8.0 0.03 3.81 2.44 97 1015.5
20210919154605 11 165 1.6 8.0 0.03 3.81 2.44 96 1015.4
20210919154025 11 178 3.2 6.4 0.03 3.81 2.44 97 1015.2
20210919153526 11 189 0.0 6.4 0.05 3.81 2.44 96 1015.4
20210919153046 11 180 0.0 4.8 0.05 3.81 2.44 97 1015.2
20210919152527 11 0 0.0 4.8 0.05 3.81 2.44 97 1015.1
20210919152023 11 0 0.0 4.8 0.08 3.81 2.44 97 1015.1
20210919151538 11 228 0.0 4.8 0.10 3.81 2.44 97 1014.9
20210919151023 11 134 0.0 6.4 0.10 3.81 2.44 97 1014.8
20210919150524 11 0 1.6 6.4 0.13 3.81 2.44 96 1014.6
20210919150043 11 0 0.0 3.2 0.15 3.81 2.44 97 1014.6
20210919145530 11 180 1.6 6.4 0.15 4.55 2.44 97 1014.5
20210919145022 11 0 0.0 6.4 0.15 4.52 2.41 97 1014.3
20210919144537 11 194 0.0 6.4 0.18 4.52 2.41 97 1014.2
20210919144029 11 181 1.6 6.4 0.20 4.52 2.41 97 1014.1
20210919143523 11 0 1.6 6.4 0.20 4.50 2.39 97 1013.9
20210919143046 11 0 0.0 4.8 0.23 4.50 2.39 97 1013.8
20210919142522 11 202 0.0 4.8 0.25 4.47 2.36 97 1013.8
20210919142023 11 188 1.6 4.8 0.28 4.47 2.36 97 1013.7
20210919141538 11 188 0.0 6.4 0.28 4.45 2.34 97 1013.6
20210919141023 11 0 0.0 9.7 0.33 4.45 2.34 97 1013.4
20210919140535 11 194 3.2 9.7 0.36 4.42 2.31 97 1013.3
20210919140113 11 211 3.2 8.0 0.36 4.39 2.29 97 1013.3
20210919135522 11 195 1.6 8.0 0.38 4.83 2.26 97 1013.2
20210919135023 11 194 3.2 8.0 0.43 4.83 2.26 97 1013.2
20210919134534 11 208 4.8 8.0 0.46 4.80 2.24 97 1013.2
20210919134025 11 185 1.6 8.0 0.48 4.78 2.21 97 1013.1
20210919133524 11 0 1.6 8.0 0.51 4.75 2.18 97 1013.1
20210919133042 11 181 3.2 8.0 0.51 4.70 2.13 97 1013.0
20210919132539 11 0 1.6 12.9 0.53 4.67 2.11 97 1012.8
20210919132030 11 143 0.0 16.1 0.56 4.65 2.08 97 1012.7
20210919131529 11 142 4.8 16.1 0.58 4.60 2.03 97 1012.5
20210919131022 11 146 3.2 8.0 0.61 4.57 2.01 97 1012.5
20210919130524 11 152 1.6 6.4 0.61 4.52 1.96 97 1012.5
20210919130043 11 148 1.6 6.4 0.66 4.50 1.93 97 1012.3
20210919125533 11 128 1.6 4.8 0.69 4.72 1.88 97 1012.3
20210919125022 11 128 0.0 6.4 0.71 4.67 1.83 96 1012.2
20210919124628 11 108 1.6 6.4 0.71 4.62 1.78 96 1012.1
20210919124033 11 135 0.0 4.8 0.74 4.57 1.73 96 1012.0
20210919123526 11 127 0.0 11.3 0.76 4.52 1.68 96 1012.0
20210919123029 11 0 1.6 11.3 0.79 4.47 1.63 96 1012.0
20210919122524 11 0 1.6 9.7 0.84 4.42 1.57 96 1011.9
20210919122025 11 0 0.0 4.8 0.84 4.34 1.47 96 1011.8
20210919121535 11 126 0.0 8.0 0.84 4.29 1.45 96 1011.9
20210919121034 11 136 1.6 8.0 0.86 4.24 1.40 96 1011.9
20210919120524 11 132 1.6 4.8 0.86 4.17 1.32 96 1011.8
20210919120115 11 0 0.0 6.4 0.86 4.11 1.27 96 1011.8
20210919115530 11 144 0.0 6.4 0.86 4.22 1.19 96 1011.6
20210919115023 11 0 0.0 0.0 0.84 4.14 1.12 96 1011.7
20210919114526 11 0 0.0 0.0 0.81 4.06 1.04 96 1011.5
20210919114023 11 0 0.0 0.0 0.76 3.99 0.97 96 1011.6
20210919113529 11 0 0.0 0.0 0.71 3.91 0.89 96 1011.4
20210919113040 11 0 0.0 0.0 0.66 3.84 0.81 96 1011.4
20210919112542 11 0 0.0 0.0 0.61 3.76 0.74 96 1011.4
20210919112034 11 0 0.0 0.0 0.53 3.68 0.66 96 1011.4
20210919111540 11 0 0.0 0.0 0.48 3.61 0.58 96 1011.3
20210919111023 11 0 0.0 0.0 0.41 3.53 0.51 96 1011.2
20210919110524 11 0 0.0 0.0 0.38 3.48 0.46 96 1011.3
20210919110107 10 0 0.0 0.0 0.30 3.40 0.38 96 1011.2
20210919105537 11 0 0.0 0.0 0.28 3.51 0.33 96 1011.2
20210919105024 10 0 0.0 0.0 0.23 3.45 0.28 96 1011.2
20210919104620 10 0 0.0 0.0 0.18 3.40 0.23 96 1011.2
20210919104032 10 0 0.0 4.8 0.18 3.38 0.20 96 1011.2
20210919103535 10 0 0.0 4.8 0.15 3.35 0.18 96 1011.0
20210919103044 10 355 3.2 4.8 0.13 3.33 0.15 96 1011.2
20210919102523 10 0 0.0 4.8 0.10 3.30 0.13 96 1011.1
20210919102022 10 0 1.6 4.8 0.10 3.30 0.13 96 1011.1
20210919101547 10 40 0.0 3.2 0.08 3.28 0.10 96 1011.0
20210919101031 10 40 0.0 3.2 0.08 3.28 0.10 95 1010.9
20210919100528 10 0 0.0 3.2 0.05 3.25 0.08 95 1011.0
20210919100104 10 327 0.0 3.2 0.05 3.25 0.08 95 1011.1
20210919095541 10 0 0.0 3.2 0.03 3.40 0.05 95 1011.1
20210919095024 10 0 0.0 3.2 0.03 3.40 0.05 95 1011.0
20210919094607 10 0 0.0 3.2 0.03 3.40 0.05 95 1011.0
20210919094022 10 327 0.0 6.4 0.00 3.38 0.03 95 1011.1
20210919093522 10 0 3.2 6.4 0.00 3.38 0.03 94 1011.1
20210919093028 10 0 0.0 3.2 0.00 3.38 0.03 94 1011.1
20210919092522 10 0 0.0 3.2 0.03 3.38 0.03 94 1011.0
20210919092024 10 316 0.0 9.7 0.03 3.38 0.03 93 1010.8
20210919091530 10 316 1.6 9.7 0.03 3.38 0.03 92 1010.9
20210919091036 10 265 4.8 14.5 0.03 3.38 0.03 93 1010.9
20210919090526 11 317 8.0 14.5 0.03 3.38 0.03 93 1010.8
20210919090036 11 324 3.2 11.3 0.03 3.38 0.03 93 1010.9
20210919085538 11 317 4.8 11.3 0.03 3.56 0.03 93 1010.8
20210919085021 11 249 3.2 11.3 0.03 3.56 0.03 93 1010.6
20210919084552 11 261 1.6 11.3 0.03 3.56 0.03 93 1010.7
20210919084046 11 316 1.6 6.4 0.03 3.56 0.03 94 1010.7
20210919083522 11 219 3.2 14.5 0.03 3.56 0.03 94 1010.3
20210919083048 11 263 3.2 14.5 0.03 3.56 0.03 95 1010.2
20210919082522 11 227 1.6 9.7 0.00 3.53 0.00 95 1010.1
20210919082022 11 0 0.0 3.2 0.00 3.53 0.00 95 1009.9
20210919081549 11 195 0.0 4.8 0.00 3.53 0.00 95 1009.8
20210919081023 11 0 0.0 6.4 0.00 3.53 0.00 94 1009.9
20210919080523 11 190 1.6 14.5 0.00 3.53 0.00 95 1010.0
20210919080125 11 191 4.8 14.5 0.00 3.53 0.00 95 1009.8
20210919075532 12 236 6.4 14.5 0.00 3.68 0.00 95 1009.8
20210919075035 12 169 4.8 14.5 0.00 3.68 0.00 96 1010.0
20210919074525 12 190 4.8 14.5 0.00 3.68 0.00 96 1009.9
20210919074022 12 138 1.6 9.7 0.00 3.68 0.00 95 1009.8
20210919073524 12 174 3.2 14.5 0.00 3.68 0.00 95 1009.8
20210919073134 12 144 4.8 17.7 0.00 3.68 0.00 95 1009.7
20210919072537 12 152 6.4 17.7 0.00 3.68 0.00 95 1009.6
20210919072022 12 114 3.2 17.7 0.00 3.68 0.00 96 1009.6
20210919071553 12 132 4.8 17.7 0.00 3.68 0.00 95 1009.6
20210919071022 12 133 4.8 11.3 0.00 3.68 0.00 96 1009.5
20210919070527 12 152 4.8 11.3 0.00 3.68 0.00 96 1009.6
20210919070043 12 163 4.8 16.1 0.00 3.68 0.00 96 1009.6
20210919065521 12 152 4.8 16.1 0.00 3.96 3.68 96 1009.6
20210919065024 12 123 6.4 14.5 0.00 3.96 3.68 96 1009.6
20210919064555 12 143 3.2 19.3 0.00 3.96 3.68 96 1009.5
20210919064036 12 146 4.8 19.3 0.00 3.96 3.68 96 1009.3
20210919063522 12 152 4.8 12.9 0.00 3.96 3.68 96 1009.3
20210919063101 12 120 1.6 11.3 0.00 3.96 3.68 96 1009.3
20210919062522 12 115 3.2 11.3 0.00 3.96 3.68 96 1009.4